Location: Indian Hills
(32.9760°N, 85.9450°W)
Time: 01:25:06
(UTC+00:00)

Cosmos 1484 Rocket - Pass Details

Date: 09 December 2019
Orbit: 505 x 561 km, 97.4° (Epoch: 28 January)

Event Time Altitude Azimuth Distance (km) Brightness Sun altitude
Rises 11:40:47 0° 349° (NNW) 2,722 6.1 -11.2°
Reaches altitude 10° 11:43:43 10° 325° (NW) 1,812 5.0 -10.7°
Maximum altitude 11:45:53 15° 291° (WNW) 1,529 4.4 -10.2°
Drops below altitude 10° 11:48:02 10° 257° (WSW) 1,788 4.9 -9.8°
Sets 11:50:54 0° 233° (SW) 2,660 6.0 -9.3°
